| time (UTC) | temp C | wind direction | speed KPH | gust KPH | rain 1hr cm | rain 24hr cm | rain mn cm | humidity % | barometer mb |
| 20260831025526 | 20 | 223 | 0.0 | 0.0 | 0.00 | 0.05 | 0.05 | 63 | 1018.5 |
| 20260831025019 | 20 | 223 | 0.0 | 0.0 | 0.00 | 0.05 | 0.05 | 63 | 1018.3 |
| 20260831024513 | 20 | 223 | 0.0 | 0.0 | 0.00 | 0.05 | 0.05 | 63 | 1018.5 |
| 20260831024006 | 20 | 223 | 0.0 | 0.0 | 0.00 | 0.05 | 0.05 | 63 | 1018.5 |
| 20260831023500 | 20 | 223 | 0.0 | 0.0 | 0.00 | 0.05 | 0.05 | 62 | 1018.1 |
| 20260831021942 | 20 | 223 | 0.0 | 0.0 | 0.00 | 0.05 | 0.05 | 62 | 1017.9 |
| 20260831021437 | 21 | 223 | 0.0 | 0.0 | 0.00 | 0.05 | 0.05 | 62 | 1018.0 |
| 20260831020931 | 21 | 223 | 0.0 | 0.0 | 0.00 | 0.05 | 0.05 | 62 | 1017.9 |
| 20260831020425 | 21 | 223 | 0.0 | 0.0 | 0.00 | 0.05 | 0.05 | 61 | 1017.9 |
| 20260831015920 | 21 | 223 | 0.0 | 0.0 | 0.00 | 0.05 | 0.05 | 61 | 1017.9 |
| 20260831015412 | 21 | 223 | 0.0 | 0.0 | 0.00 | 0.05 | 0.05 | 61 | 1017.9 |
| 20260831014401 | 21 | 223 | 0.0 | 0.0 | 0.00 | 0.05 | 0.05 | 60 | 1017.8 |
| 20260831013350 | 22 | 223 | 0.0 | 0.0 | 0.00 | 0.05 | 0.05 | 59 | 1017.8 |
| 20260831012842 | 22 | 223 | 0.0 | 0.0 | 0.00 | 0.05 | 0.05 | 59 | 1017.9 |
| 20260831012337 | 22 | 223 | 0.0 | 0.0 | 0.00 | 0.05 | 0.05 | 58 | 1017.8 |
| 20260831011831 | 22 | 223 | 0.0 | 0.0 | 0.00 | 0.05 | 0.05 | 58 | 1017.6 |
| 20260831011325 | 22 | 223 | 0.0 | 0.0 | 0.00 | 0.05 | 0.05 | 57 | 1017.8 |
| 20260831005807 | 23 | 222 | 0.0 | 0.0 | 0.00 | 0.05 | 0.05 | 56 | 1017.6 |
| 20260831004250 | 23 | 222 | 0.0 | 0.0 | 0.00 | 0.05 | 0.05 | 56 | 1017.8 |
| 20260831003239 | 23 | 222 | 0.0 | 0.0 | 0.00 | 0.05 | 0.05 | 56 | 1017.8 |
| 20260831002733 | 23 | 222 | 0.0 | 3.2 | 0.00 | 0.05 | 0.05 | 56 | 1017.8 |
| 20260831002225 | 23 | 222 | 0.0 | 3.2 | 0.00 | 0.05 | 0.05 | 57 | 1018.0 |
| 20260831001718 | 23 | 222 | 0.0 | 3.2 | 0.00 | 0.05 | 0.05 | 59 | 1017.9 |
| 20260831001213 | 23 | 223 | 0.0 | 0.0 | 0.00 | 0.05 | 0.05 | 59 | 1017.9 |
| 20260831000201 | 22 | 225 | 0.0 | 0.0 | 0.00 | 0.05 | 0.05 | 62 | 1017.9 |
| 20260830235655 | 22 | 225 | 0.0 | 0.0 | 0.00 | 0.05 | 0.05 | 63 | 1017.9 |
| 20260830234139 | 21 | 226 | 0.0 | 0.0 | 0.00 | 0.05 | 0.05 | 64 | 1017.8 |
| 20260830233631 | 21 | 226 | 0.0 | 0.0 | 0.00 | 0.05 | 0.05 | 65 | 1017.8 |
| 20260830233125 | 21 | 226 | 0.0 | 0.0 | 0.00 | 0.05 | 0.05 | 66 | 1017.9 |
| 20260830232618 | 21 | 226 | 0.0 | 0.0 | 0.03 | 0.05 | 0.05 | 66 | 1017.8 |
| 20260830232113 | 21 | 226 | 0.0 | 0.0 | 0.03 | 0.05 | 0.05 | 65 | 1017.8 |
| 20260830231608 | 21 | 226 | 0.0 | 0.0 | 0.03 | 0.05 | 0.05 | 65 | 1017.8 |
| 20260830231102 | 21 | 226 | 0.0 | 0.0 | 0.03 | 0.05 | 0.05 | 64 | 1017.8 |
| 20260830230556 | 21 | 226 | 0.0 | 0.0 | 0.03 | 0.05 | 0.05 | 64 | 1017.8 |
| 20260830230048 | 21 | 226 | 0.0 | 0.0 | 0.03 | 0.05 | 0.05 | 63 | 1017.6 |
| 20260830225050 | 21 | 226 | 0.0 | 0.0 | 0.03 | 0.05 | 0.05 | 61 | 1017.9 |
| 20260830224548 | 21 | 226 | 0.0 | 0.0 | 0.03 | 0.05 | 0.05 | 59 | 1017.9 |
| 20260830224047 | 21 | 226 | 0.0 | 0.0 | 0.03 | 0.05 | 0.05 | 59 | 1018.1 |
| 20260830223544 | 21 | 226 | 0.0 | 0.0 | 0.03 | 0.05 | 0.05 | 59 | 1018.2 |
| 20260830222046 | 21 | 221 | 0.0 | 0.0 | 0.00 | 0.03 | 0.03 | 56 | 1018.8 |
| 20260830221542 | 21 | 261 | 0.0 | 0.0 | 0.00 | 0.03 | 0.03 | 56 | 1018.8 |
| 20260830221041 | 21 | 258 | 0.0 | 1.6 | 0.00 | 0.03 | 0.03 | 55 | 1018.8 |
| 20260830220039 | 22 | 245 | 1.6 | 14.5 | 0.00 | 0.03 | 0.03 | 53 | 1018.6 |
| 20260830215538 | 22 | 281 | 1.6 | 14.5 | 0.00 | 0.03 | 0.03 | 51 | 1018.6 |
| 20260830215039 | 22 | 345 | 1.6 | 12.9 | 0.00 | 0.03 | 0.03 | 50 | 1018.3 |
| 20260830214534 | 22 | 315 | 1.6 | 20.9 | 0.00 | 0.03 | 0.03 | 50 | 1018.2 |
| 20260830214034 | 22 | 296 | 0.0 | 20.9 | 0.03 | 0.03 | 0.03 | 50 | 1018.2 |
| 20260830213535 | 22 | 13 | 1.6 | 14.5 | 0.03 | 0.03 | 0.03 | 52 | 1018.2 |
| 20260830213035 | 22 | 258 | 3.2 | 14.5 | 0.03 | 0.03 | 0.03 | 52 | 1018.2 |
| 20260830212534 | 22 | 213 | 4.8 | 24.1 | 0.03 | 0.03 | 0.03 | 52 | 1018.3 |
| 20260830212036 | 22 | 18 | 4.8 | 24.1 | 0.03 | 0.03 | 0.03 | 54 | 1018.6 |
| 20260830211537 | 22 | 5 | 4.8 | 22.5 | 0.03 | 0.03 | 0.03 | 57 | 1018.6 |
| 20260830211036 | 22 | 293 | 4.8 | 22.5 | 0.03 | 0.03 | 0.03 | 60 | 1018.7 |
| 20260830210536 | 22 | 332 | 1.6 | 16.1 | 0.03 | 0.03 | 0.03 | 64 | 1018.6 |
| 20260830205532 | 23 | 32 | 3.2 | 16.1 | 0.03 | 0.03 | 0.03 | 62 | 1018.5 |
| 20260830205033 | 24 | 10 | 4.8 | 19.3 | 0.03 | 0.03 | 0.03 | 58 | 1018.0 |
| 20260830204032 | 26 | 337 | 4.8 | 16.1 | 0.00 | 0.00 | 0.00 | 44 | 1017.8 |
| 20260830203533 | 26 | 65 | 4.8 | 17.7 | 0.00 | 0.00 | 0.00 | 42 | 1017.8 |
| 20260830203032 | 26 | 344 | 3.2 | 17.7 | 0.00 | 0.00 | 0.00 | 42 | 1017.4 |
| 20260830202033 | 27 | 290 | 0.0 | 16.1 | 0.00 | 0.00 | 0.00 | 41 | 1016.9 |
| 20260830201526 | 27 | 334 | 1.6 | 22.5 | 0.00 | 0.00 | 0.00 | 39 | 1016.9 |
| 20260830201021 | 28 | 335 | 1.6 | 22.5 | 0.00 | 0.00 | 0.00 | 37 | 1016.9 |
| 20260830200008 | 30 | 319 | 0.0 | 0.0 | 0.00 | 0.00 | 0.00 | 35 | 1016.6 |
| 20260830195503 | 30 | 157 | 0.0 | 0.0 | 0.00 | 0.00 | 0.00 | 35 | 1016.4 |
| 20260830194958 | 30 | 157 | 0.0 | 0.0 | 0.00 | 0.00 | 0.00 | 35 | 1016.4 |
| 20260830194450 | 30 | 157 | 0.0 | 0.0 | 0.00 | 0.00 | 0.00 | 34 | 1016.2 |
| 20260830193944 | 30 | 157 | 0.0 | 0.0 | 0.00 | 0.00 | 0.00 | 34 | 1016.0 |
| 20260830193438 | 30 | 157 | 0.0 | 0.0 | 0.00 | 0.00 | 0.00 | 35 | 1015.9 |
| 20260830192932 | 30 | 212 | 0.0 | 0.0 | 0.00 | 0.00 | 0.00 | 34 | 1015.9 |
| 20260830192427 | 30 | 212 | 0.0 | 0.0 | 0.00 | 0.00 | 0.00 | 35 | 1015.9 |
| 20260830191920 | 30 | 212 | 0.0 | 0.0 | 0.00 | 0.00 | 0.00 | 36 | 1015.8 |
| 20260830191415 | 29 | 212 | 0.0 | 0.0 | 0.00 | 0.00 | 0.00 | 35 | 1015.9 |
| 20260830190909 | 29 | 230 | 0.0 | 0.0 | 0.00 | 0.00 | 0.00 | 38 | 1016.1 |
| 20260830190403 | 29 | 230 | 0.0 | 0.0 | 0.00 | 0.00 | 0.00 | 38 | 1016.1 |
| 20260830185856 | 29 | 230 | 0.0 | 0.0 | 0.00 | 0.00 | 0.00 | 38 | 1016.1 |
| 20260830185352 | 28 | 231 | 0.0 | 0.0 | 0.00 | 0.00 | 0.00 | 39 | 1016.1 |
| 20260830183831 | 28 | 263 | 0.0 | 0.0 | 0.00 | 0.00 | 0.00 | 39 | 1016.5 |
| 20260830182314 | 28 | 265 | 0.0 | 0.0 | 0.00 | 0.00 | 0.00 | 37 | 1016.4 |
| 20260830181808 | 28 | 265 | 0.0 | 0.0 | 0.00 | 0.00 | 0.00 | 39 | 1016.6 |
| 20260830181303 | 28 | 265 | 0.0 | 0.0 | 0.00 | 0.00 | 0.00 | 36 | 1016.5 |
| 20260830180756 | 27 | 265 | 0.0 | 0.0 | 0.00 | 0.00 | 0.00 | 36 | 1016.6 |
| 20260830175745 | 27 | 0 | 0.0 | 0.0 | 0.00 | 0.00 | 0.00 | 37 | 1016.7 |
| 20260830174732 | 27 | 0 | 0.0 | 0.0 | 0.00 | 0.00 | 0.00 | 38 | 1016.9 |
| 20260830174227 | 27 | 0 | 0.0 | 0.0 | 0.00 | 0.00 | 0.00 | 39 | 1016.9 |
| 20260830173721 | 26 | 0 | 0.0 | 0.0 | 0.00 | 0.00 | 0.00 | 40 | 1017.2 |
| 20260830173215 | 26 | 0 | 0.0 | 0.0 | 0.00 | 0.00 | 0.00 | 41 | 1017.1 |
| 20260830172709 | 26 | 0 | 0.0 | 0.0 | 0.00 | 0.00 | 0.00 | 39 | 1017.2 |
| 20260830171655 | 26 | 257 | 0.0 | 0.0 | 0.00 | 0.00 | 0.00 | 40 | 1017.3 |
| 20260830171151 | 25 | 252 | 0.0 | 0.0 | 0.00 | 0.00 | 0.00 | 44 | 1017.4 |
| 20260830170138 | 25 | 252 | 0.0 | 0.0 | 0.00 | 0.00 | 0.00 | 44 | 1017.4 |
| 20260830165632 | 25 | 252 | 0.0 | 0.0 | 0.00 | 0.00 | 0.00 | 46 | 1017.5 |
| 20260830165126 | 24 | 252 | 0.0 | 0.0 | 0.00 | 0.00 | 0.00 | 47 | 1017.5 |
| 20260830164620 | 24 | 252 | 0.0 | 0.0 | 0.00 | 0.00 | 0.00 | 52 | 1017.5 |
| 20260830164114 | 23 | 251 | 0.0 | 0.0 | 0.00 | 0.00 | 0.00 | 52 | 1017.6 |
| 20260830163608 | 23 | 251 | 0.0 | 0.0 | 0.00 | 0.00 | 0.00 | 52 | 1017.6 |
| 20260830163102 | 23 | 251 | 0.0 | 0.0 | 0.00 | 0.00 | 0.00 | 53 | 1017.8 |
| 20260830162556 | 23 | 252 | 0.0 | 0.0 | 0.00 | 0.00 | 0.00 | 51 | 1017.9 |
| 20260830162050 | 22 | 252 | 0.0 | 0.0 | 0.00 | 0.00 | 0.00 | 53 | 1017.9 |
| 20260830161543 | 22 | 251 | 0.0 | 0.0 | 0.00 | 0.00 | 0.00 | 52 | 1018.0 |
| 20260830161039 | 22 | 251 | 0.0 | 0.0 | 0.00 | 0.00 | 0.00 | 54 | 1017.9 |
| 20260830160532 | 22 | 251 | 0.0 | 0.0 | 0.00 | 0.00 | 0.00 | 55 | 1018.0 |
| 20260830160026 | 22 | 251 | 0.0 | 0.0 | 0.00 | 0.00 | 0.00 | 55 | 1018.1 |
| 20260830155520 | 21 | 250 | 0.0 | 1.6 | 0.00 | 0.00 | 0.00 | 55 | 1018.1 |
| 20260830155015 | 21 | 250 | 0.0 | 1.6 | 0.00 | 0.00 | 0.00 | 55 | 1018.1 |
| 20260830154509 | 21 | 251 | 0.0 | 0.0 | 0.00 | 0.00 | 0.00 | 56 | 1018.0 |
| 20260830153455 | 21 | 252 | 0.0 | 0.0 | 0.00 | 0.00 | 0.00 | 59 | 1017.9 |
| 20260830152443 | 21 | 252 | 0.0 | 0.0 | 0.00 | 0.00 | 0.00 | 60 | 1017.9 |
| 20260830151939 | 21 | 256 | 0.0 | 0.0 | 0.00 | 0.00 | 0.00 | 60 | 1017.8 |
| 20260830151432 | 21 | 250 | 0.0 | 0.0 | 0.00 | 0.00 | 0.00 | 62 | 1017.6 |
| 20260830150926 | 20 | 250 | 0.0 | 0.0 | 0.00 | 0.00 | 0.00 | 63 | 1017.6 |
| 20260830150419 | 20 | 250 | 0.0 | 0.0 | 0.00 | 0.00 | 0.00 | 64 | 1017.6 |
| 20260830145408 | 20 | 249 | 0.0 | 1.6 | 0.00 | 0.00 | 0.00 | 66 | 1017.5 |
| 20260830144902 | 20 | 246 | 0.0 | 0.0 | 0.00 | 0.00 | 0.00 | 68 | 1017.4 |
| 20260830143849 | 19 | 246 | 0.0 | 1.6 | 0.00 | 0.00 | 0.00 | 72 | 1017.5 |
| 20260830143344 | 19 | 71 | 0.0 | 0.0 | 0.00 | 0.00 | 0.00 | 74 | 1017.5 |
| 20260830142331 | 18 | 71 | 0.0 | 0.0 | 0.00 | 0.00 | 0.00 | 74 | 1017.4 |
| 20260830140307 | 17 | 71 | 0.0 | 0.0 | 0.00 | 0.00 | 0.00 | 74 | 1017.3 |
| 20260830135801 | 17 | 71 | 0.0 | 0.0 | 0.00 | 0.00 | 0.00 | 74 | 1017.4 |
| 20260830135255 | 17 | 71 | 0.0 | 0.0 | 0.00 | 0.00 | 0.00 | 74 | 1017.4 |
| 20260830134750 | 17 | 71 | 0.0 | 0.0 | 0.00 | 0.00 | 0.00 | 74 | 1017.5 |
| 20260830134244 | 17 | 71 | 0.0 | 0.0 | 0.00 | 0.00 | 0.00 | 73 | 1017.4 |
| 20260830133739 | 17 | 71 | 0.0 | 0.0 | 0.00 | 0.00 | 0.00 | 73 | 1017.4 |
| 20260830133232 | 17 | 71 | 0.0 | 0.0 | 0.00 | 0.00 | 0.00 | 73 | 1017.5 |
| 20260830132726 | 17 | 71 | 0.0 | 0.0 | 0.00 | 0.00 | 0.00 | 73 | 1017.4 |
| 20260830132220 | 17 | 71 | 0.0 | 0.0 | 0.00 | 0.00 | 0.00 | 73 | 1017.4 |
| 20260830131713 | 17 | 71 | 0.0 | 0.0 | 0.00 | 0.00 | 0.00 | 72 | 1017.4 |
| 20260830131211 | 16 | 71 | 0.0 | 0.0 | 0.00 | 0.00 | 0.00 | 72 | 1017.4 |
| 20260830130703 | 16 | 71 | 0.0 | 0.0 | 0.00 | 0.00 | 0.00 | 72 | 1017.4 |
| 20260830130206 | 16 | 71 | 0.0 | 0.0 | 0.00 | 0.00 | 0.00 | 72 | 1017.4 |
| 20260830125703 | 16 | 71 | 0.0 | 0.0 | 0.00 | 0.00 | 0.00 | 72 | 1017.3 |
| 20260830125206 | 16 | 71 | 0.0 | 0.0 | 0.00 | 0.00 | 0.00 | 71 | 1017.2 |
| 20260830124704 | 16 | 71 | 0.0 | 0.0 | 0.00 | 0.00 | 0.00 | 71 | 1017.2 |
| 20260830124205 | 16 | 71 | 0.0 | 0.0 | 0.00 | 0.00 | 0.00 | 71 | 1017.1 |
| 20260830123206 | 16 | 71 | 0.0 | 0.0 | 0.00 | 0.00 | 0.00 | 70 | 1016.8 |
| 20260830122206 | 17 | 71 | 0.0 | 0.0 | 0.00 | 0.00 | 0.00 | 70 | 1016.7 |
| 20260830120700 | 17 | 71 | 0.0 | 0.0 | 0.00 | 0.00 | 0.00 | 70 | 1016.5 |
| 20260830120200 | 17 | 71 | 0.0 | 0.0 | 0.00 | 0.00 | 0.00 | 70 | 1016.5 |
| 20260830115700 | 17 | 71 | 0.0 | 0.0 | 0.00 | 0.00 | 0.00 | 70 | 1016.4 |
| 20260830115200 | 17 | 71 | 0.0 | 0.0 | 0.00 | 0.00 | 0.00 | 70 | 1016.5 |
| 20260830114659 | 17 | 71 | 0.0 | 0.0 | 0.00 | 0.00 | 0.00 | 70 | 1016.4 |
| 20260830114159 | 17 | 71 | 0.0 | 0.0 | 0.00 | 0.00 | 0.00 | 70 | 1016.2 |
| 20260830113659 | 17 | 71 | 0.0 | 0.0 | 0.00 | 0.00 | 0.00 | 70 | 1016.2 |
| 20260830113155 | 17 | 71 | 0.0 | 0.0 | 0.00 | 0.00 | 0.00 | 69 | 1016.2 |
| 20260830112655 | 17 | 71 | 0.0 | 0.0 | 0.00 | 0.00 | 0.00 | 69 | 1016.4 |
| 20260830111656 | 17 | 71 | 0.0 | 0.0 | 0.00 | 0.00 | 0.00 | 69 | 1016.5 |
| 20260830111156 | 17 | 71 | 0.0 | 0.0 | 0.00 | 0.00 | 0.00 | 69 | 1016.5 |
| 20260830110155 | 17 | 71 | 0.0 | 0.0 | 0.00 | 0.00 | 0.00 | 69 | 1016.5 |
| 20260830105656 | 17 | 71 | 0.0 | 0.0 | 0.00 | 0.00 | 0.00 | 69 | 1016.5 |
| 20260830104649 | 17 | 71 | 0.0 | 0.0 | 0.00 | 0.00 | 0.00 | 69 | 1016.4 |
| 20260830104143 | 18 | 71 | 0.0 | 0.0 | 0.00 | 0.00 | 0.00 | 70 | 1016.5 |
| 20260830103132 | 18 | 71 | 0.0 | 0.0 | 0.00 | 0.00 | 0.00 | 70 | 1016.2 |
| 20260830102626 | 18 | 71 | 0.0 | 0.0 | 0.00 | 0.00 | 0.00 | 70 | 1016.4 |
| 20260830102119 | 18 | 71 | 0.0 | 0.0 | 0.00 | 0.00 | 0.00 | 70 | 1016.4 |
| 20260830101612 | 18 | 71 | 0.0 | 0.0 | 0.00 | 0.00 | 0.00 | 70 | 1016.4 |
| 20260830101108 | 18 | 71 | 0.0 | 0.0 | 0.00 | 0.00 | 0.00 | 70 | 1016.5 |
| 20260830100601 | 18 | 71 | 0.0 | 0.0 | 0.00 | 0.00 | 0.00 | 70 | 1016.2 |
| 20260830100055 | 17 | 71 | 0.0 | 0.0 | 0.00 | 0.00 | 0.00 | 70 | 1016.4 |
| 20260830095547 | 17 | 71 | 0.0 | 0.0 | 0.00 | 0.00 | 0.00 | 70 | 1016.4 |
| 20260830095040 | 18 | 71 | 0.0 | 0.0 | 0.00 | 0.00 | 0.00 | 70 | 1016.5 |
| 20260830094029 | 18 | 71 | 0.0 | 0.0 | 0.00 | 0.00 | 0.00 | 71 | 1016.2 |
| 20260830093524 | 17 | 71 | 0.0 | 0.0 | 0.00 | 0.00 | 0.00 | 70 | 1016.2 |
| 20260830093016 | 17 | 71 | 0.0 | 0.0 | 0.00 | 0.00 | 0.00 | 69 | 1016.2 |
| 20260830092511 | 17 | 71 | 0.0 | 0.0 | 0.00 | 0.00 | 0.00 | 69 | 1016.2 |
| 20260830092005 | 17 | 71 | 0.0 | 0.0 | 0.00 | 0.00 | 0.00 | 69 | 1016.0 |
| 20260830091458 | 18 | 71 | 0.0 | 0.0 | 0.00 | 0.00 | 0.00 | 69 | 1016.1 |
| 20260830090953 | 17 | 71 | 0.0 | 0.0 | 0.00 | 0.00 | 0.00 | 69 | 1016.2 |
| 20260830090446 | 17 | 71 | 0.0 | 0.0 | 0.00 | 0.00 | 0.00 | 69 | 1016.4 |
| 20260830085941 | 17 | 71 | 0.0 | 0.0 | 0.00 | 0.00 | 0.00 | 69 | 1016.4 |
| 20260830085436 | 17 | 71 | 0.0 | 0.0 | 0.00 | 0.00 | 0.00 | 68 | 1016.5 |
| 20260830084928 | 17 | 71 | 0.0 | 0.0 | 0.00 | 0.00 | 0.00 | 68 | 1016.4 |
| 20260830084424 | 17 | 71 | 0.0 | 0.0 | 0.00 | 0.00 | 0.00 | 68 | 1016.5 |
| 20260830083917 | 17 | 71 | 0.0 | 0.0 | 0.00 | 0.00 | 0.00 | 68 | 1016.4 |
| 20260830083410 | 17 | 71 | 0.0 | 0.0 | 0.00 | 0.00 | 0.00 | 68 | 1016.4 |
| 20260830082904 | 17 | 71 | 0.0 | 0.0 | 0.00 | 0.00 | 0.00 | 68 | 1016.2 |
| 20260830082401 | 17 | 71 | 0.0 | 0.0 | 0.00 | 0.00 | 0.00 | 68 | 1016.2 |
| 20260830081854 | 17 | 71 | 0.0 | 0.0 | 0.00 | 0.00 | 0.00 | 68 | 1016.4 |
| 20260830081346 | 17 | 71 | 0.0 | 0.0 | 0.00 | 0.00 | 0.00 | 68 | 1016.4 |
| 20260830080335 | 17 | 71 | 0.0 | 0.0 | 0.00 | 0.00 | 0.00 | 67 | 1016.6 |
| 20260830075829 | 17 | 71 | 0.0 | 0.0 | 0.00 | 0.00 | 0.00 | 67 | 1016.6 |
| 20260830075324 | 17 | 71 | 0.0 | 0.0 | 0.00 | 0.00 | 0.00 | 67 | 1016.6 |
| 20260830074311 | 17 | 71 | 0.0 | 0.0 | 0.00 | 0.00 | 0.00 | 66 | 1016.5 |
| 20260830073805 | 17 | 71 | 0.0 | 0.0 | 0.00 | 0.00 | 0.00 | 66 | 1016.4 |
| 20260830072753 | 17 | 71 | 0.0 | 0.0 | 0.00 | 0.00 | 0.00 | 65 | 1016.5 |
| 20260830072246 | 17 | 72 | 0.0 | 0.0 | 0.00 | 0.00 | 0.00 | 65 | 1016.6 |
| 20260830071741 | 17 | 72 | 0.0 | 0.0 | 0.00 | 0.00 | 0.00 | 64 | 1016.6 |
| 20260830070736 | 17 | 72 | 0.0 | 0.0 | 0.00 | 0.00 | 0.00 | 64 | 1016.7 |
| 20260830070233 | 17 | 71 | 0.0 | 0.0 | 0.00 | 0.00 | 0.00 | 64 | 1016.9 |
| 20260830065731 | 17 | 72 | 0.0 | 0.0 | 0.00 | 0.00 | 0.00 | 63 | 1016.9 |
| 20260830064731 | 17 | 72 | 0.0 | 0.0 | 0.00 | 0.00 | 0.00 | 63 | 1017.2 |
| 20260830064231 | 17 | 71 | 0.0 | 0.0 | 0.00 | 0.00 | 0.00 | 63 | 1017.3 |
| 20260830063728 | 17 | 71 | 0.0 | 0.0 | 0.00 | 0.00 | 0.00 | 63 | 1017.4 |
| 20260830063229 | 17 | 72 | 0.0 | 0.0 | 0.00 | 0.00 | 0.00 | 62 | 1017.4 |
| 20260830062729 | 17 | 72 | 0.0 | 0.0 | 0.00 | 0.00 | 0.00 | 62 | 1017.4 |
| 20260830061730 | 18 | 72 | 0.0 | 0.0 | 0.00 | 0.00 | 0.00 | 62 | 1017.5 |
| 20260830061229 | 18 | 71 | 0.0 | 0.0 | 0.00 | 0.00 | 0.00 | 61 | 1017.6 |
| 20260830055223 | 18 | 71 | 0.0 | 0.0 | 0.00 | 0.00 | 0.00 | 61 | 1017.8 |
| 20260830054724 | 18 | 71 | 0.0 | 0.0 | 0.00 | 0.00 | 0.00 | 60 | 1017.6 |
| 20260830054225 | 18 | 72 | 0.0 | 0.0 | 0.00 | 0.00 | 0.00 | 60 | 1017.6 |
| 20260830053724 | 18 | 72 | 0.0 | 0.0 | 0.00 | 0.00 | 0.00 | 60 | 1017.8 |
| 20260830053218 | 18 | 71 | 0.0 | 0.0 | 0.00 | 0.00 | 0.00 | 60 | 1017.8 |
| 20260830052711 | 18 | 72 | 0.0 | 0.0 | 0.00 | 0.00 | 0.00 | 60 | 1017.9 |
| 20260830052205 | 18 | 72 | 0.0 | 0.0 | 0.00 | 0.00 | 0.00 | 59 | 1017.8 |
| 20260830051659 | 18 | 72 | 0.0 | 0.0 | 0.00 | 0.00 | 0.00 | 59 | 1017.8 |
| 20260830051159 | 18 | 71 | 0.0 | 0.0 | 0.00 | 0.00 | 0.00 | 59 | 1017.8 |
| 20260830050659 | 18 | 72 | 0.0 | 0.0 | 0.00 | 0.00 | 0.00 | 59 | 1017.9 |
| 20260830050157 | 18 | 71 | 0.0 | 0.0 | 0.00 | 0.00 | 0.00 | 58 | 1017.8 |
| 20260830045655 | 18 | 72 | 0.0 | 0.0 | 0.00 | 0.00 | 0.00 | 58 | 1017.9 |
| 20260830045155 | 18 | 71 | 0.0 | 0.0 | 0.00 | 0.00 | 0.00 | 58 | 1018.0 |
| 20260830044656 | 18 | 71 | 0.0 | 0.0 | 0.00 | 0.00 | 0.00 | 58 | 1018.0 |
| 20260830044155 | 18 | 71 | 0.0 | 0.0 | 0.00 | 0.00 | 0.00 | 58 | 1018.1 |
| 20260830043153 | 18 | 71 | 0.0 | 0.0 | 0.00 | 0.00 | 0.00 | 57 | 1018.2 |
| 20260830042651 | 19 | 71 | 0.0 | 0.0 | 0.00 | 0.00 | 0.00 | 58 | 1018.3 |
| 20260830042149 | 19 | 71 | 0.0 | 0.0 | 0.00 | 0.00 | 0.00 | 57 | 1018.3 |
| 20260830041648 | 19 | 71 | 0.0 | 0.0 | 0.00 | 0.00 | 0.00 | 57 | 1018.5 |
| 20260830040647 | 19 | 71 | 0.0 | 0.0 | 0.00 | 0.00 | 0.00 | 57 | 1018.6 |
| 20260830035146 | 20 | 71 | 0.0 | 0.0 | 0.00 | 0.00 | 0.00 | 56 | 1018.6 |
| 20260830034644 | 20 | 71 | 0.0 | 0.0 | 0.00 | 0.00 | 0.00 | 56 | 1018.6 |
| 20260830034142 | 20 | 71 | 0.0 | 0.0 | 0.00 | 0.00 | 0.00 | 55 | 1018.5 |
| 20260830032623 | 20 | 71 | 0.0 | 0.0 | 0.00 | 0.00 | 0.00 | 55 | 1018.5 |
| 20260830032116 | 20 | 71 | 0.0 | 0.0 | 0.00 | 0.00 | 0.00 | 54 | 1018.5 |
| 20260830031611 | 20 | 71 | 0.0 | 0.0 | 0.00 | 0.00 | 0.00 | 54 | 1018.3 |
| 20260830031106 | 21 | 71 | 0.0 | 0.0 | 0.00 | 0.00 | 0.00 | 54 | 1018.1 |
| 20260830030600 | 21 | 71 | 0.0 | 0.0 | 0.00 | 0.00 | 0.00 | 54 | 1018.1 |
| 20260830030053 | 21 | 69 | 0.0 | 0.0 | 0.00 | 0.00 | 0.00 | 53 | 1018.0 |